Location: Grantsboro
(35.1404°N, 76.8424°W)
Time: 09:50:25
(UTC+00:00)

COSMOS 2455 - Pass Details

Date: 18 January 2020
Orbit: 902 x 907 km, 67.1° (Epoch: 17 February)

Event Time Altitude Azimuth Distance (km) Brightness Sun altitude
Rises 11:18:08 0° 221° (SW) 3,513 5.7 -11.6°
Reaches altitude 10° 11:20:44 10° 227° (SW) 2,576 4.9 -11.1°
Maximum altitude 11:26:28 48° 301° (WNW) 1,173 3.1 -10.0°
Drops below altitude 10° 11:32:16 10° 15° (NNE) 2,592 5.2 -8.8°
Sets 11:34:53 0° 21° (NNE) 3,537 6.0 -8.3°
